GW7039 Weather Reports


time (UTC)temp
C
wind
direction
speed
KPH
gust
KPH
rain 1hr
cm
rain 24hr
cm
rain mn
cm
humidity
%
barometer
mb
20260906122306 20 68 3.2 4.8 0.00 0.00 0.00 94 1020.4
20260906121803 20 23 1.6 3.2 0.00 0.00 0.00 95 1020.5
20260906121259 20 66 0.0 3.2 0.00 0.00 0.00 95 1020.2
20260906120754 20 73 0.0 1.6 0.00 0.00 0.00 96 1020.1
20260906120251 20 62 0.0 4.8 0.00 0.00 0.00 96 1020.2
20260906115747 20 74 3.2 4.8 0.00 0.00 0.00 97 1020.1
20260906115241 19 92 0.0 4.8 0.00 0.00 0.00 98 1019.8
20260906114740 19 62 3.2 3.2 0.00 0.00 0.00 98 1019.9
20260906114236 19 46 1.6 6.4 0.00 0.00 0.00 98 1019.7
20260906113731 19 65 3.2 4.8 0.00 0.00 0.00 98 1019.7
20260906113231 19 34 0.0 1.6 0.00 0.00 0.00 98 1019.5
20260906112730 19 53 3.2 3.2 0.00 0.00 0.00 98 1019.3
20260906112227 19 59 0.0 3.2 0.00 0.00 0.00 98 1019.4
20260906111726 19 64 0.0 3.2 0.00 0.00 0.00 98 1019.3
20260906111221 19 72 1.6 4.8 0.00 0.00 0.00 98 1019.3
20260906110716 19 67 1.6 3.2 0.00 0.00 0.00 98 1019.3
20260906110212 19 59 1.6 9.7 0.00 0.00 0.00 98 1019.2
20260906105711 19 46 0.0 1.6 0.00 0.00 0.00 98 1019.3
20260906105208 19 67 1.6 4.8 0.00 0.00 0.00 98 1019.3
20260906104707 19 331 3.2 6.4 0.00 0.00 0.00 98 1019.3
20260906104207 19 53 0.0 4.8 0.00 0.00 0.00 98 1019.1
20260906103704 19 46 1.6 4.8 0.00 0.00 0.00 98 1019.0
20260906103159 19 39 3.2 3.2 0.00 0.00 0.00 98 1018.9
20260906102655 19 43 1.6 3.2 0.00 0.00 0.00 98 1018.9
20260906102154 19 64 0.0 3.2 0.00 0.00 0.00 98 1019.0
20260906101653 19 67 0.0 4.8 0.00 0.00 0.00 98 1018.8
20260906101148 19 30 4.8 4.8 0.00 0.00 0.00 98 1019.1
20260906100645 19 66 0.0 4.8 0.00 0.00 0.00 98 1018.9
20260906100144 19 49 3.2 4.8 0.00 0.00 0.00 98 1018.9
20260906095639 19 31 0.0 1.6 0.00 0.00 0.00 98 1018.8
20260906095135 20 71 3.2 3.2 0.00 0.00 0.00 98 1018.9
20260906094634 20 18 1.6 4.8 0.00 0.00 0.00 98 1018.7
20260906094130 20 63 1.6 3.2 0.00 0.00 0.00 98 1019.0
20260906093626 20 38 3.2 4.8 0.00 0.00 0.00 97 1019.0
20260906093125 20 53 1.6 4.8 0.00 0.00 0.00 97 1018.8
20260906092620 20 19 1.6 6.4 0.00 0.00 0.00 97 1018.8
20260906092115 20 21 3.2 4.8 0.00 0.00 0.00 97 1018.7
20260906091612 20 55 1.6 3.2 0.00 0.00 0.00 97 1018.7
20260906091109 20 61 3.2 4.8 0.00 0.00 0.00 97 1018.8
20260906090608 20 36 0.0 4.8 0.00 0.00 0.00 97 1018.7
20260906090108 20 70 1.6 4.8 0.00 0.00 0.00 97 1018.5
20260906085607 20 46 1.6 4.8 0.00 0.00 0.00 97 1018.7
20260906085102 20 355 6.4 6.4 0.00 0.00 0.00 97 1018.8
20260906084557 20 26 3.2 3.2 0.00 0.00 0.00 97 1018.8
20260906084055 20 14 4.8 6.4 0.00 0.00 0.00 97 1018.6
20260906083551 20 32 4.8 4.8 0.00 0.00 0.00 97 1018.7
20260906083050 20 352 3.2 4.8 0.00 0.00 0.00 96 1018.8
20260906082546 20 60 3.2 6.4 0.00 0.00 0.00 96 1018.7
20260906082042 20 47 1.6 3.2 0.00 0.00 0.00 96 1018.7
20260906081537 20 26 3.2 3.2 0.00 0.00 0.00 96 1018.7
20260906081033 20 73 0.0 0.0 0.00 0.00 0.00 96 1018.7
20260906080529 20 65 0.0 0.0 0.00 0.00 0.00 96 1018.8
20260906080026 20 27 3.2 3.2 0.00 0.00 0.00 96 1018.7
20260906075525 20 71 0.0 1.6 0.00 0.00 0.00 96 1018.8
20260906075020 20 76 0.0 1.6 0.00 0.00 0.00 96 1018.8
20260906074515 20 68 1.6 1.6 0.00 0.00 0.00 96 1019.0
20260906074013 20 73 0.0 1.6 0.00 0.00 0.00 96 1018.6
20260906073508 20 51 0.0 1.6 0.00 0.00 0.00 96 1018.7
20260906073004 20 39 0.0 1.6 0.00 0.00 0.00 96 1018.8
20260906072459 20 61 0.0 0.0 0.00 0.00 0.00 96 1018.8
20260906071955 20 64 0.0 1.6 0.00 0.00 0.00 96 1019.1
20260906071452 20 72 0.0 3.2 0.00 0.00 0.00 96 1018.7
20260906070947 20 66 0.0 1.6 0.00 0.00 0.00 96 1019.0
20260906070443 20 47 3.2 4.8 0.00 0.00 0.00 96 1018.8
20260906065938 21 62 1.6 4.8 0.00 0.00 0.00 96 1018.8
20260906065437 21 32 1.6 3.2 0.00 0.00 0.00 95 1019.1
20260906064933 21 64 1.6 4.8 0.00 0.00 0.00 95 1019.0
20260906064429 21 65 1.6 4.8 0.00 0.00 0.00 95 1018.8
20260906063924 21 18 8.0 11.3 0.00 0.00 0.00 95 1018.9
20260906063419 21 62 1.6 4.8 0.00 0.00 0.00 95 1018.7
20260906062914 21 68 1.6 3.2 0.00 0.00 0.00 95 1018.7
20260906062414 21 61 0.0 4.8 0.00 0.00 0.00 94 1018.8
20260906061909 21 67 0.0 4.8 0.00 0.00 0.00 94 1018.8
20260906061406 21 33 6.4 11.3 0.00 0.00 0.00 94 1018.7
20260906060906 21 5 3.2 9.7 0.00 0.00 0.00 94 1018.7
20260906060403 21 43 3.2 6.4 0.00 0.00 0.00 93 1018.8
20260906055859 21 47 3.2 4.8 0.00 0.00 0.00 93 1019.0
20260906055355 21 15 6.4 11.3 0.00 0.00 0.00 93 1018.8
20260906054849 21 24 3.2 6.4 0.00 0.00 0.00 93 1019.0
20260906054344 21 37 1.6 4.8 0.00 0.00 0.00 92 1019.0
20260906053841 21 40 8.0 12.9 0.00 0.00 0.00 92 1018.8
20260906053336 21 57 3.2 9.7 0.00 0.00 0.00 92 1018.9
20260906052832 21 37 1.6 4.8 0.00 0.00 0.00 92 1018.9
20260906052328 21 50 6.4 6.4 0.00 0.00 0.00 92 1018.8
20260906051825 21 57 3.2 11.3 0.00 0.00 0.00 92 1018.9
20260906051324 21 60 3.2 3.2 0.00 0.00 0.00 92 1018.7
20260906050820 21 74 3.2 6.4 0.00 0.00 0.00 91 1018.6
20260906050315 21 47 3.2 6.4 0.00 0.00 0.00 91 1018.7
20260906045814 21 66 3.2 4.8 0.00 0.00 0.00 91 1018.5
20260906045308 21 31 0.0 6.4 0.00 0.00 0.00 91 1018.5
20260906044805 21 67 1.6 9.7 0.00 0.00 0.00 91 1018.7
20260906044259 22 40 4.8 6.4 0.00 0.00 0.00 91 1018.5
20260906043755 22 55 3.2 9.7 0.00 0.00 0.00 91 1018.4
20260906043251 21 88 1.6 6.4 0.00 0.00 0.00 91 1018.3
20260906042750 21 35 3.2 16.1 0.00 0.00 0.00 91 1018.4
20260906042250 21 83 3.2 6.4 0.00 0.00 0.00 91 1018.3
20260906041745 21 64 0.0 4.8 0.00 0.00 0.00 91 1018.0
20260906041240 21 81 3.2 6.4 0.00 0.00 0.00 91 1017.8
20260906040736 22 67 4.8 16.1 0.00 0.00 0.00 91 1017.9
20260906040231 21 33 3.2 12.9 0.00 0.00 0.00 92 1017.7
20260906035726 21 35 3.2 11.3 0.00 0.00 0.00 92 1018.0
20260906035222 21 79 0.0 3.2 0.00 0.00 0.00 92 1017.9
20260906034721 21 312 3.2 12.9 0.00 0.00 0.00 92 1017.8
20260906034216 21 1 0.0 4.8 0.00 0.00 0.00 92 1017.7
20260906033712 21 80 0.0 6.4 0.00 0.00 0.00 92 1017.7
20260906033212 21 72 0.0 4.8 0.00 0.00 0.00 91 1017.6
20260906032710 21 43 1.6 6.4 0.00 0.00 0.00 91 1017.7
20260906032209 21 63 4.8 9.7 0.00 0.00 0.00 91 1017.6
20260906031704 21 50 3.2 11.3 0.00 0.00 0.00 91 1017.8
20260906031159 22 51 3.2 9.7 0.00 0.00 0.00 91 1017.8
20260906030659 22 59 3.2 9.7 0.00 0.00 0.00 91 1017.6
20260906030154 22 46 4.8 11.3 0.00 0.00 0.00 90 1017.9
20260906025654 21 35 6.4 14.5 0.00 0.00 0.00 90 1017.8
20260906025153 21 46 3.2 6.4 0.00 0.00 0.00 90 1017.8
20260906024648 21 47 3.2 14.5 0.00 0.00 0.00 90 1017.7
20260906024147 21 49 1.6 4.8 0.00 0.00 0.00 91 1017.9
20260906023643 21 57 3.2 11.3 0.00 0.00 0.00 90 1017.7
20260906023143 21 53 3.2 11.3 0.00 0.00 0.00 90 1017.7
20260906022638 21 60 0.0 9.7 0.00 0.00 0.00 90 1017.8
20260906022134 21 66 0.0 16.1 0.00 0.00 0.00 90 1017.8
20260906021630 22 71 3.2 6.4 0.00 0.00 0.00 90 1017.6
20260906021129 22 86 1.6 6.4 0.00 0.00 0.00 90 1017.6
20260906020629 22 41 6.4 12.9 0.00 0.00 0.00 90 1017.5
20260906020123 22 50 1.6 12.9 0.00 0.00 0.00 90 1017.5
20260906015618 22 73 3.2 9.7 0.00 0.00 0.00 90 1017.8
20260906015116 22 64 4.8 12.9 0.00 0.00 0.00 90 1017.8
20260906014611 22 1 6.4 12.9 0.00 0.00 0.00 89 1017.9
20260906014108 22 60 8.0 14.5 0.00 0.00 0.00 89 1017.7
20260906013603 22 53 11.3 16.1 0.00 0.00 0.00 89 1017.8
20260906013058 22 79 3.2 11.3 0.00 0.00 0.00 88 1017.7
20260906012553 22 73 4.8 11.3 0.00 0.00 0.00 89 1017.8
20260906012052 22 67 9.7 16.1 0.00 0.00 0.00 89 1017.9
20260906011549 22 25 3.2 11.3 0.00 0.00 0.00 89 1017.9
20260906011048 22 49 6.4 9.7 0.00 0.00 0.00 90 1017.7
20260906010544 22 0 9.7 16.1 0.00 0.00 0.00 89 1017.8
20260906010040 22 21 6.4 9.7 0.00 0.00 0.00 89 1017.9
20260906005539 22 28 4.8 11.3 0.00 0.00 0.00 88 1017.5
20260906005039 22 291 4.8 6.4 0.00 0.00 0.00 88 1017.6
20260906004538 22 42 6.4 14.5 0.00 0.00 0.00 88 1017.7
20260906004033 22 355 6.4 11.3 0.00 0.00 0.00 88 1017.6
20260906003528 22 348 6.4 9.7 0.00 0.00 0.00 88 1017.5
20260906003024 22 351 9.7 16.1 0.00 0.00 0.00 88 1017.3
20260906002519 22 351 9.7 25.7 0.00 0.00 0.00 88 1017.2
20260906002013 22 25 4.8 14.5 0.00 0.00 0.00 89 1017.5
20260906001509 22 57 6.4 12.9 0.00 0.00 0.00 90 1017.2
20260906001003 22 358 6.4 12.9 0.00 0.00 0.00 90 1017.1
20260906000500 22 10 8.0 12.9 0.00 0.00 0.00 90 1017.1
20260905235954 22 36 4.8 14.5 0.00 0.00 0.00 90 1017.2
20260905235454 22 79 6.4 16.1 0.00 0.00 0.00 90 1017.0
20260905234949 22 330 11.3 17.7 0.00 0.00 0.00 90 1017.2
20260905234445 22 56 4.8 17.7 0.00 0.00 0.00 90 1017.2
20260905233944 22 50 11.3 16.1 0.00 0.00 0.00 89 1017.1
20260905233440 23 78 8.0 14.5 0.00 0.00 0.00 88 1017.2
20260905232938 23 28 6.4 9.7 0.00 0.00 0.00 88 1017.0
20260905232435 23 67 4.8 9.7 0.00 0.00 0.00 88 1016.9
20260905231930 23 18 4.8 12.9 0.00 0.00 0.00 87 1017.0
20260905231426 23 27 14.5 22.5 0.00 0.00 0.00 86 1016.9
20260905230922 24 43 4.8 17.7 0.00 0.00 0.00 85 1016.9
20260905230420 24 68 12.9 17.7 0.00 0.00 0.00 84 1016.6
20260905225919 25 7 11.3 16.1 0.00 0.00 0.00 83 1016.4
20260905225414 25 64 8.0 16.1 0.00 0.00 0.00 83 1016.5
20260905224909 25 68 4.8 14.5 0.00 0.00 0.00 83 1016.5
20260905224405 25 62 8.0 11.3 0.00 0.00 0.00 83 1016.5
20260905223859 25 57 6.4 14.5 0.00 0.00 0.00 82 1016.3
20260905223358 25 81 4.8 16.1 0.00 0.00 0.00 82 1016.5
20260905222857 26 9 4.8 14.5 0.00 0.00 0.00 81 1016.4
20260905222356 26 72 6.4 17.7 0.00 0.00 0.00 81 1016.3
20260905221852 26 53 6.4 12.9 0.00 0.00 0.00 79 1016.3
20260905221349 26 358 8.0 16.1 0.00 0.00 0.00 78 1016.1
20260905220844 26 69 4.8 11.3 0.00 0.00 0.00 79 1016.1
20260905220341 26 57 6.4 14.5 0.00 0.00 0.00 79 1016.4
20260905215840 27 73 3.2 9.7 0.00 0.00 0.00 78 1016.4
20260905215336 26 60 1.6 12.9 0.00 0.00 0.00 78 1016.4
20260905214832 27 42 3.2 4.8 0.00 0.00 0.00 77 1016.0
20260905214332 27 67 3.2 9.7 0.00 0.00 0.00 75 1016.1
20260905213827 27 24 3.2 16.1 0.00 0.00 0.00 76 1016.1
20260905213323 27 354 6.4 12.9 0.00 0.00 0.00 75 1016.1
20260905212819 27 55 3.2 11.3 0.00 0.00 0.00 74 1015.9
20260905212319 27 16 11.3 12.9 0.00 0.00 0.00 73 1015.9
20260905211818 27 349 8.0 14.5 0.00 0.00 0.00 75 1016.3
20260905211314 27 86 1.6 9.7 0.00 0.00 0.00 78 1016.0
20260905210810 27 138 0.0 6.4 0.00 0.00 0.00 79 1015.9
20260905210309 26 9 4.8 6.4 0.00 0.00 0.00 78 1016.3
20260905205809 26 12 4.8 12.9 0.00 0.00 0.00 78 1016.3
20260905205306 27 64 1.6 6.4 0.00 0.00 0.00 79 1016.0
20260905204802 27 83 1.6 12.9 0.00 0.00 0.00 77 1016.1
20260905204259 26 70 1.6 6.4 0.00 0.00 0.00 79 1016.4
20260905203758 27 294 6.4 16.1 0.00 0.00 0.00 78 1016.5
20260905203253 26 49 1.6 6.4 0.00 0.00 0.00 78 1016.4
20260905202749 26 355 6.4 9.7 0.00 0.00 0.00 78 1016.4
20260905202244 26 341 8.0 11.3 0.00 0.00 0.00 78 1016.5
20260905201739 26 46 4.8 12.9 0.00 0.00 0.00 80 1016.5
20260905201234 26 11 8.0 11.3 0.00 0.00 0.00 79 1016.4
20260905200729 26 47 4.8 12.9 0.00 0.00 0.00 82 1016.4
20260905200225 26 48 4.8 11.3 0.00 0.00 0.00 83 1016.3
20260905195723 25 338 12.9 16.1 0.00 0.00 0.00 83 1016.7
20260905195218 25 43 3.2 6.4 0.00 0.00 0.00 83 1016.6
20260905194714 26 25 11.3 14.5 0.00 0.00 0.00 82 1016.6
20260905194213 25 17 9.7 16.1 0.00 0.00 0.00 83 1016.6
20260905193707 25 62 4.8 12.9 0.00 0.00 0.00 83 1016.6
20260905193202 25 73 3.2 9.7 0.00 0.00 0.00 84 1016.4
20260905192658 25 70 3.2 4.8 0.00 0.00 0.00 83 1016.6
20260905192154 25 1 4.8 12.9 0.00 0.00 0.00 84 1016.8
20260905191654 25 297 9.7 12.9 0.00 0.00 0.00 84 1016.6
20260905191151 25 308 8.0 14.5 0.00 0.00 0.00 84 1016.6
20260905190651 25 358 4.8 16.1 0.00 0.00 0.00 84 1016.7
20260905190150 25 318 4.8 9.7 0.00 0.00 0.00 84 1016.8
20260905185649 25 15 6.4 16.1 0.00 0.00 0.00 84 1016.8
20260905185144 25 333 9.7 14.5 0.00 0.00 0.00 83 1016.9
20260905184643 25 351 8.0 11.3 0.00 0.00 0.00 83 1016.8
20260905184142 25 49 4.8 11.3 0.00 0.00 0.00 84 1016.8
20260905183641 25 335 14.5 17.7 0.00 0.00 0.00 84 1017.0
20260905183137 25 42 3.2 11.3 0.00 0.00 0.00 84 1016.9
20260905182636 26 43 3.2 9.7 0.00 0.00 0.00 83 1017.1
20260905182136 26 339 3.2 11.3 0.00 0.00 0.00 83 1017.3
20260905181631 26 58 3.2 16.1 0.00 0.00 0.00 83 1017.0
20260905181130 26 8 11.3 12.9 0.00 0.00 0.00 83 1016.7
20260905180626 25 43 3.2 9.7 0.00 0.00 0.00 84 1016.8
20260905180121 26 355 12.9 14.5 0.00 0.00 0.00 82 1017.1
20260905175620 26 40 6.4 12.9 0.00 0.00 0.00 83 1016.7
20260905175116 26 48 4.8 12.9 0.00 0.00 0.00 83 1016.6
20260905174611 26 24 4.8 16.1 0.00 0.00 0.00 82 1016.7
20260905174106 26 334 3.2 12.9 0.00 0.00 0.00 82 1016.8
20260905173603 26 105 4.8 9.7 0.00 0.00 0.00 81 1016.7
20260905173058 27 35 8.0 11.3 0.00 0.00 0.00 81 1016.7
20260905172556 27 54 6.4 12.9 0.00 0.00 0.00 80 1016.7
20260905172052 27 328 11.3 14.5 0.00 0.00 0.00 80 1016.8
20260905171548 27 94 4.8 14.5 0.00 0.00 0.00 80 1016.8
20260905171044 27 317 9.7 22.5 0.00 0.00 0.00 80 1016.8
20260905170541 26 43 8.0 11.3 0.00 0.00 0.00 81 1016.7
20260905170035 26 48 12.9 14.5 0.00 0.00 0.00 81 1016.9
20260905165531 26 34 4.8 11.3 0.00 0.00 0.00 82 1016.7
20260905165026 26 95 6.4 14.5 0.00 0.00 0.00 82 1016.8
20260905164526 26 52 1.6 11.3 0.00 0.00 0.00 82 1017.0
20260905164020 27 94 6.4 11.3 0.00 0.00 0.00 81 1016.7
20260905163516 27 19 4.8 16.1 0.00 0.00 0.00 81 1017.0
20260905163012 27 75 0.0 9.7 0.00 0.00 0.00 80 1016.8
20260905162508 27 34 6.4 11.3 0.00 0.00 0.00 80 1016.6
20260905162003 27 99 1.6 9.7 0.00 0.00 0.00 79 1016.7
20260905161502 27 58 4.8 11.3 0.00 0.00 0.00 79 1016.8
20260905161000 27 29 3.2 11.3 0.00 0.00 0.00 80 1016.8
20260905160500 27 86 3.2 11.3 0.00 0.00 0.00 80 1016.7
20260905155959 27 30 6.4 12.9 0.00 0.00 0.00 79 1016.6
20260905155454 27 16 8.0 12.9 0.00 0.00 0.00 80 1016.8
20260905154953 27 71 1.6 9.7 0.00 0.00 0.00 80 1016.6
20260905154448 27 43 4.8 9.7 0.00 0.00 0.00 82 1016.5
20260905153944 27 33 11.3 14.5 0.00 0.00 0.00 81 1016.6
20260905153440 27 326 4.8 14.5 0.00 0.00 0.00 81 1016.5
20260905152939 27 66 8.0 12.9 0.00 0.00 0.00 81 1016.3
20260905152439 26 66 3.2 16.1 0.00 0.00 0.00 83 1016.3
20260905151939 26 46 4.8 12.9 0.00 0.00 0.00 84 1016.4
20260905151435 26 88 1.6 6.4 0.00 0.00 0.00 84 1016.3
20260905150930 25 324 1.6 11.3 0.00 0.00 0.00 86 1016.3
20260905150431 25 18 8.0 11.3 0.00 0.00 0.00 87 1016.3
20260905145927 25 49 4.8 11.3 0.00 0.00 0.00 88 1016.3
20260905145427 25 17 4.8 14.5 0.00 0.00 0.00 88 1016.1
20260905144926 25 9 4.8 14.5 0.00 0.00 0.00 87 1016.1
20260905144422 25 12 6.4 12.9 0.00 0.00 0.00 87 1016.0
20260905143921 25 83 6.4 12.9 0.00 0.00 0.00 86 1015.9
20260905143415 26 357 9.7 16.1 0.00 0.00 0.00 85 1015.8
20260905142914 26 37 6.4 11.3 0.00 0.00 0.00 85 1015.9
20260905142413 25 352 9.7 16.1 0.00 0.00 0.00 85 1016.0
20260905141909 25 43 4.8 14.5 0.00 0.00 0.00 86 1016.1
20260905141404 25 37 8.0 17.7 0.00 0.00 0.00 86 1015.8
20260905140900 25 13 12.9 16.1 0.00 0.00 0.00 86 1015.8
20260905140355 25 82 3.2 9.7 0.00 0.00 0.00 86 1015.7
20260905135854 25 339 8.0 11.3 0.00 0.00 0.00 87 1015.8
20260905135350 25 346 3.2 9.7 0.00 0.00 0.00 88 1015.6
20260905134845 25 60 3.2 4.8 0.00 0.00 0.00 88 1015.8
20260905134344 25 55 4.8 6.4 0.00 0.00 0.00 89 1015.8
20260905133838 23 354 6.4 11.3 0.00 0.00 0.00 92 1015.9
20260905133334 23 358 3.2 14.5 0.00 0.00 0.00 94 1015.9
20260905132833 23 17 3.2 9.7 0.00 0.00 0.00 94 1016.4
20260905132329 23 307 4.8 12.9 0.00 0.00 0.00 95 1016.3
20260905131828 23 7 8.0 11.3 0.00 0.00 0.00 95 1016.3
20260905131324 23 70 3.2 9.7 0.00 0.00 0.00 96 1016.1
20260905130819 23 48 4.8 6.4 0.00 0.00 0.00 96 1015.8
20260905130318 23 52 3.2 9.7 0.00 0.00 0.00 95 1015.7
20260905125813 23 64 3.2 9.7 0.00 0.00 0.00 96 1015.7
20260905125308 23 57 3.2 6.4 0.00 0.00 0.00 96 1015.5
20260905124804 23 29 6.4 9.7 0.00 0.00 0.00 96 1015.2
20260905124300 23 72 1.6 4.8 0.00 0.00 0.00 96 1015.3
20260905123755 23 28 3.2 6.4 0.00 0.00 0.00 97 1015.3
20260905123253 22 349 1.6 4.8 0.00 0.00 0.00 97 1015.4
20260905122752 22 53 1.6 6.4 0.00 0.00 0.00 97 1015.2